This is the latest recevied weather packets stored in our database for station/object DH1NAI-6. If no packets are shown the sender has not sent any weather packets the latest 10 day(s).
| Time | Temp. | Humidity | Pressure | Rain* | Wind** | Luminosity | Snow |
|---|---|---|---|---|---|---|---|
| 1777727571 | 22.78° C | 35% | 1018.1 hPa | 0 mm | - | 177 W/m² | - |
| 1777726963 | 22.78° C | 33% | 1018.4 hPa | 0 mm | - | 173 W/m² | - |
| 1777726355 | 22.22° C | 33% | 1018.4 hPa | 0 mm | - | 182 W/m² | - |
| 1777725748 | 22.22° C | 33% | 1018.5 hPa | 0 mm | - | 183 W/m² | - |
| 1777725139 | 22.22° C | 34% | 1018.5 hPa | 0 mm | - | 176 W/m² | - |
| 1777724515 | 21.67° C | 35% | 1018.6 hPa | 0 mm | - | 185 W/m² | - |
| 1777723907 | 21.67° C | 34% | 1019 hPa | 0 mm | - | 185 W/m² | - |
| 1777723299 | 21.11° C | 35% | 1018.9 hPa | 0 mm | - | 187 W/m² | - |
| 1777722692 | 21.67° C | 36% | 1019.1 hPa | 0 mm | - | 182 W/m² | - |
| 1777722083 | 22.22° C | 36% | 1019.1 hPa | 0 mm | - | 186 W/m² | - |
| 1777721476 | 21.67° C | 38% | 1019.4 hPa | 0 mm | - | 188 W/m² | - |
| 1777720867 | 21.67° C | 38% | 1019.5 hPa | 0 mm | - | 188 W/m² | - |
| 1777720260 | 21.11° C | 37% | 1019.4 hPa | 0 mm | - | 185 W/m² | - |
| 1777719651 | 21.11° C | 37% | 1019.7 hPa | 0 mm | - | 185 W/m² | - |
| 1777719043 | 21.11° C | 40% | 1019.4 hPa | 0 mm | - | 189 W/m² | - |
| 1777718433 | 20.56° C | 42% | 1019.5 hPa | 0 mm | - | 177 W/m² | - |
| 1777717811 | 20° C | 44% | 1019.9 hPa | 0 mm | - | 172 W/m² | - |
| 1777717203 | 20.56° C | 43% | 1020.1 hPa | 0 mm | - | 178 W/m² | - |
| 1777716595 | 19.44° C | 45% | 1019.9 hPa | 0 mm | - | 187 W/m² | - |
| 1777715988 | 20° C | 45% | 1020.2 hPa | 0 mm | - | 188 W/m² | - |
| 1777715373 | 20° C | 45% | 1020.3 hPa | 0 mm | - | 191 W/m² | - |
| 1777714772 | 19.44° C | 47% | 1020.3 hPa | 0 mm | - | 191 W/m² | - |
| 1777714163 | 19.44° C | 47% | 1020.4 hPa | 0 mm | - | 193 W/m² | - |
| 1777713539 | 18.89° C | 45% | 1020.7 hPa | 0 mm | - | 181 W/m² | - |
| 1777712915 | 19.44° C | 44% | 1020.6 hPa | 0 mm | - | 178 W/m² | - |
* Rain latest hour (hover to see other rain measurements)
** Current wind speed in m/s (hover to see current wind gust speed)